Location: Carella
(45.8167°N, 9.2667°E)
Time: 02:30:51
(UTC+00:00)

Orbus 7S? - Pass Details

Date: 30 March 2020
Orbit: 336 x 6429 km, 56.9° (Epoch: 31 May)

Event Time Altitude Azimuth Distance (km) Brightness Sun altitude
Rises 18:21:59 0° 306° (NW) 2,821 8.4 -6.5°
Reaches altitude 10° 18:24:41 10° 297° (WNW) 1,551 7.2 -6.9°
Maximum altitude 18:27:27 33° 230° (SW) 616 4.0 -7.4°
Drops below altitude 10° 18:29:45 10° 161° (SSE) 1,273 4.9 -7.8°
Enters shadow 18:31:03 - 153° (SSE) 1,873 5.6 -8.0°
